www.pogodaiklimat.ru
ПОГОДА в Пойнт Мугу
Время
и дата
04:55 07.02
05:55 07.02
06:55 07.02
07:55 07.02
08:55 07.02
09:55 07.02
10:55 07.02
11:55 07.02
12:55 07.02
13:55 07.02
14:55 07.02
15:55 07.02
16:55 07.02
17:55 07.02
18:55 07.02
19:55 07.02
20:55 07.02
21:55 07.02
22:55 07.02
23:55 07.02
00:55 08.02
01:55 08.02
02:55 08.02
03:55 08.02
04:55 08.02
05:55 08.02
06:55 08.02
07:55 08.02
08:55 08.02
09:55 08.02
10:55 08.02
11:55 08.02
12:55 08.02
13:55 08.02
14:55 08.02
15:55 08.02
16:55 08.02
17:55 08.02
18:55 08.02
19:55 08.02
20:55 08.02
21:55 08.02
22:55 08.02
23:55 08.02
00:55 09.02
01:55 09.02
02:55 09.02
03:55 09.02
Ветер
(напр.,м/с)
Видим. Явления Облачность Т
(С)
Тd
(С)
f
(%)
Тe
(С)
Тes
(С)
Комфортность P
(гПа)
Po
(гПа)
Тmin
(С)
Tmax
(С)
R
(мм)
R24
(мм)
S
(см)
В 2 16 км ясно +11.1 -2.2 39 +10 +10 1024.7 1024.2
СВ 5 16 км ясно +12.2 -0.6 41 +10 +10 1025.4 1024.9
В 7 16 км ясно +11.7 -1.1 41 +9 +9 1025.7 1025.3
СВ 8
{12}
16 км ясно +14.4 0.0 37 +12 +12 1025.6 1025.3
В 10
{14}
16 км ясно +16.7 -1.1 30 +15 +15 1026.0 1025.6
В 9
{14}
16 км ясно +18.9 -2.2 24 +18 +18 1025.6 1024.9 +8.3 +18.9
СВ 10
{16}
16 км ясно +20.0 -1.1 24 +19 +20 1026.1 1025.6
СВ 7
{11}
16 км дым 2/2 60 м +20.6 +0.6 26 +20 +22 1025.7 1025.3
нст 3 16 км дым 2/2 60 m
[Ci]
+20.6 +3.9 33 +21 +28 комфорт 1024.7 1024.2
СЗ 6 16 км 2/0 8400 m
[Ci]
+19.4 +1.1 29 +19 +22 1024.1 1023.6
СЗ 8 16 км 5/0 8400 m
[Ci]
+18.9 +0.6 29 +18 +19 1023.9 1023.2
З 6 16 км 5/0 8400 m
[Ci]
+17.2 +1.7 35 +16 +18 1023.8 1023.2 +17.2 +21.7
СЗ 4 16 км 5/0 8400 m
[Ci]
+14.4 +5.0 53 +13 +14 1023.7 1023.2
штиль 0 16 км 5/0 8400 m
[Ci]
+12.8 +3.9 55 +13 +13 1023.6 1023.2
СЗ 2 16 км 5/0 8400 m
[Ci]
+12.2 +7.8 74 +11 +11 1023.7 1023.2
С 2 16 км 5/0 8400 m
[Ci]
+11.7 +8.9 83 +11 +11 1023.8 1023.2
С 2 16 км 2/0 8400 m
[Ci]
+10.6 +8.9 89 +9 +9 1024.1 1023.6
СВ 2 16 км ясно +9.4 +8.3 93 +8 +8 1024.3 1023.9 +9.4 +17.2
СВ 3 16 км ясно +8.3 +4.4 76 +6 +6 1024.3 1023.9
С 2 16 км ясно +8.3 +3.9 74 +7 +7 1024.5 1023.9
СЗ 4 16 км ясно +8.3 +4.4 76 +5 +5 1024.1 1023.6
СВ 2 16 км ясно +7.2 +3.3 76 +5 +5 1023.8 1023.2
С 2 16 км ясно +7.2 +3.3 76 +5 +5 1023.4 1022.9
С 2 16 км ясно +6.7 +2.8 76 +5 +5 1023.3 1022.9 +4.4 +9.4
С 4 16 км ясно +7.2 +2.2 71 +4 +4 1023.2 1022.5
С 4 16 км ясно +7.8 +1.7 65 +5 +5 1023.5 1022.9
С 3 16 км 2/0 8400 m
[Ci]
+7.2 +1.7 68 +5 +5 1024.2 1023.6
С 3 16 км 2/0 8400 m
[Ci]
+11.1 +2.2 54 +10 +10 1024.7 1024.2
штиль 0 16 км ясно +13.9 +3.3 49 +14 +16 1025.3 1024.9
штиль 0 16 км ясно +16.7 +5.0 46 +17 +22 1025.5 1024.9 +6.7 +17.2
Ю 3 16 км ясно +16.7 +6.7 52 +17 +22 1025.5 1024.9
ЮЗ 4 16 км ясно +17.2 +7.2 52 +17 +23 1024.9 1024.2
З 4 16 км ясно +17.2 +6.1 48 +17 +23 1024.0 1023.6
ЮЗ 4 16 км 2/0 8400 m
[Ci]
+18.3 +9.4 56 +18 +24 1023.3 1022.9
З 4 16 км 2/0 8400 m
[Ci]
+16.7 +10.0 65 +16 +20 1023.1 1022.5
З 4 16 км 2/0 8400 m
[Ci]
+16.7 +8.9 60 +16 +19 1023.1 1022.5 +16.7 +18.3
ЮЗ 3 16 км ясно +15.0 +10.0 72 +14 +15 1022.8 1022.2
штиль 0 16 км 2/0 8400 m
[Ci]
+13.9 +10.0 77 +14 +14 1022.9 1022.2
штиль 0 16 км ясно +12.8 +8.3 74 +12 +12 1023.0 1022.5
С 3 16 км 2/0 8400 m
[Ci]
+11.7 +7.8 77 +10 +10 1022.9 1022.5
С 4 16 км ясно +11.1 +6.1 71 +9 +9 1022.8 1022.2
С 5 16 км ясно +10.0 +5.6 74 +7 +7 1022.7 1022.2 +10.0 +16.1
В 3 16 км ясно +7.8 +3.9 76 +5 +5 1022.8 1022.2
З 2 16 км ясно +7.8 +3.9 76 +6 +6 1022.8 1022.2
С 3 16 км ясно +9.4 +4.4 71 +7 +7 1022.7 1022.2
СВ 4 16 км ясно +7.8 +3.9 76 +5 +5 1022.3 1021.9
штиль 0 16 км ясно +7.8 +2.8 71 +7 +7 1022.0 1021.5
В 2 16 км ясно +5.6 +1.7 76 +3 +3 1022.1 1021.5 +5.6 +11.7
Местоположение метеостанции Point Mugu Naval Air Station: широта 34.1239 долгота -119.1217 высота над уровнем моря 3 м.
В архиве по умолчанию представлена погода в Пойнт Мугу за последние 1-2 суток. Обновление информации о фактической погоде в базе происходит ежечасно! Архивные данные за месяц целиком и за предыдущие месяцы Вы можете получить, выбрав интересующий диапазон дат из раскрывающегося списка и нажав кнопку "Ввод!".
Внимание! Архив погоды МЕТАР в базе сайта по станциям, не включенным в климатический монитор, хранится не более 60 дней. Нет смысла пытаться выбрать более раннюю дату.
*Определитесь, кто Вы:
Внимание! Время в таблицах - местное (без учета летнего времени). Для получения всемирного времени необходимо вычесть поправку, которая равна -8 ч.
Смотрите также архив погоды в соседних городах и на ближайших метеорологических станциях:
Партнеры нашего сайта:      
Пояснения к столбцам:
  • Ветер - указаны скорость ветра в м/с - средняя за 10 мин, порывы в срок и между сроками (в фигурных скобках) и направление, откуда дует ветер: С - северный,
  • СВ - северо-восточный, В - восточный, ЮВ - юго-восточный, Ю - южный, ЮЗ - юго-западный, З - западный, СЗ - северо-западный.
  • Видимость - горизонтальная дальность видимости в метрах или километрах. При видимости от 1 до 10 км при отсутствии осадков обычно наблюдается дымка, при ухудшении видимости до 1 км и менее - туман. В сухую погоду видимость может ухудшаться дымом, пылью или мглою.
  • Явления - указаны атмосферные явления, наблюдавшиеся в срок или в последний час перед сроком; фигурными скобками обозначены явления, наблюдавшиеся между сроками (за 1-3 часа до срока); квадратными скобками обозначены град или гололедные отложения с указанием их диаметра в мм.
  • Облачность - указаны через наклонную черту общая и нижняя облачность в баллах и высота нижней границы облаков в метрах; квадратными скобками обозначены формы облаков: Ci - перистые, Cs - перисто-слоистые, Cc - перисто-кучевые, Ac - высококучевые, As - высокослоистые, Sc - слоисто-кучевые, Ns - слоисто-дождевые, Cu - кучевые, Cb - кучево-дождевые. Подробнее классификацию облаков см. в Атласе облаков (PDF).
  • T - Температура воздуха - температура, измеренная на высоте 2 м над землей.
  • Td - Температура точки росы - температура, при понижении до которой содержащийся в воздухе водяной пар достигнет насыщения.
  • f - Относительная влажность воздуха - влажноcть воздуха, измеренная на высоте 2 м над землей.
  • Te - Эффективная температура - температура, которую ощущает одетый по сезону человек в тени. Характеристика душности погоды. При расчете учитывается влияние влажности воздуха и скорости ветра на теплоощущения человека.
  • Tes - Эффективная температура на солнце - температура, которую ощущает человек, с поправкой на солнечный нагрев. Характеристика знойности погоды. Зависит от высоты солнца над горизонтом, облачности и скорости ветра. Ночью, в пасмурную погоду, а также при ветре 12 м/с и более поправка равна нулю.
  • P - Атмосферное давление - приведенное к уровню моря атмосферное давление.
  • Po - Атмосферное давление - измеренное на уровне метеостанции атмосферное давление.
  • Tmin - Минимальная температура - минимум температуры воздуха на высоте 2 м над землей.
  • Tmax - Максимальная температура - максимум температуры воздуха на высоте 2 м над землей.
  • R - Количество осадков - Количество выпавших осадков за период времени, мм. При наведении курсора мыши на число - период времени, за который выпало указанное количество осадков.
  • R24 - Количество осадков - Количество выпавших осадков за 24 часа, мм.
  • S - Снежный покров - Высота снежного покрова, см. При наведении курсора мыши на число - состояние снежного покрова и степень покрытия местности в баллах.